QPF
0.08 0.09 0.10 0.12 0.11 0.13 0.14 0.14 0.13 0.11 0.09 0.05 0.03 0.02 0.02 0.04 0.06 0.05 0.03 0.01 0.01 0.02 0.03 0.02 0.01 0.01 0.01 0.01 0.01 0.01 0.02 0.01 0.02 0.02 0.01 0.01 0.01 0.01 0.01 0.02 0.02 0.02 0.01
0.06 0.09 0.08 0.08 0.09 0.09 0.10 0.08 0.07 0.09 0.09 0.06 0.05 0.03 0.02 0.04 0.03 0.03 0.04 0.03 0.01 0.02 0.03 0.02 0.02 0.01 0.01 0.01 0.01 0.02 0.03 0.03 0.02 0.02 0.01 0.01 0.01 0.01 0.02 0.02 0.02 0.02 0.02
0.05 0.07 0.10 0.08 0.07 0.05 0.04 0.04 0.04 0.05 0.07 0.07 0.06 0.04 0.04 0.05 0.03 0.02 0.05 0.07 0.05 0.02 0.02 0.02 0.01 0.02 0.02 0.02 0.02 0.02 0.02 0.02 0.01 0.01 0.02 0.02 0.01 0.01 0.01 0.02 0.02 0.01 0.01
0.03 0.05 0.07 0.07 0.05 0.04 0.03 0.05 0.05 0.05 0.07 0.07 0.06 0.05 0.05 0.06 0.03 0.03 0.06 0.09 0.10 0.07 0.04 0.01 0.01 0.01 0.01 0.02 0.02 0.02 0.01 0.02 0.02 0.02 0.01 0.01 0.01 0.01 0.02 0.01 0.02 0.02 0.01
0.03 0.04 0.06 0.08 0.05 0.05 0.04 0.04 0.08 0.07 0.07 0.05 0.04 0.06 0.04 0.06 0.04 0.04 0.06 0.09 0.08 0.09 0.10 0.04 0.02 0.01 0.02 0.02 0.02 0.02 0.02 0.02 0.02 0.01 0.01 0.01 0.02 0.02 0.01 0.01 0.02 0.01 0.01
0.02 0.03 0.05 0.05 0.04 0.06 0.07 0.08 0.11 0.09 0.07 0.06 0.04 0.06 0.04 0.04 0.04 0.05 0.07 0.11 0.07 0.07 0.12 0.13 0.09 0.03 0.01 0.02 0.01 0.02 0.03 0.03 0.03 0.02 0.02 0.02 0.03 0.02 0.02 0.02 0.02 0.02 0.02
0.03 0.03 0.06 0.09 0.05 0.07 0.07 0.07 0.09 0.09 0.07 0.05 0.05 0.07 0.06 0.04 0.06 0.06 0.08 0.08 0.07 0.09 0.12 0.15 0.13 0.11 0.06 0.03 0.01 0.01 0.02 0.02 0.03 0.03 0.02 0.02 0.03 0.03 0.02 0.02 0.02 0.01 0.01
0.03 0.03 0.07 0.07 0.06 0.08 0.06 0.06 0.08 0.10 0.08 0.06 0.07 0.09 0.09 0.09 0.10 0.06 0.06 0.05 0.07 0.10 0.10 0.09 0.10 0.09 0.09 0.09 0.04 0.01 0.01 0.02 0.02 0.02 0.03 0.03 0.03 0.03 0.02 0.01 0.01 0.01 0.01
0.03 0.04 0.06 0.05 0.06 0.05 0.07 0.06 0.07 0.08 0.09 0.08 0.07 0.08 0.10 0.12 0.11 0.09 0.05 0.04 0.05 0.06 0.07 0.07 0.06 0.08 0.07 0.09 0.06 0.02 0.01 0.01 0.02 0.03 0.04 0.04 0.03 0.02 0.02 0.01 0.01 0.01 0.01
0.05 0.04 0.04 0.04 0.05 0.05 0.08 0.05 0.07 0.07 0.07 0.08 0.07 0.06 0.08 0.09 0.11 0.12 0.07 0.05 0.05 0.05 0.05 0.04 0.05 0.08 0.08 0.08 0.06 0.02 0.01 0.01 0.01 0.02 0.03 0.04 0.03 0.02 0.01 0.02 0.02 0.02 0.02
0.08 0.04 0.04 0.04 0.05 0.06 0.07 0.06 0.07 0.05 0.05 0.06 0.06 0.07 0.09 0.09 0.10 0.10 0.10 0.08 0.06 0.05 0.04 0.05 0.06 0.06 0.06 0.07 0.06 0.03 0.01 0.00 0.00 0.01 0.01 0.01 0.03 0.03 0.02 0.02 0.02 0.02 0.02
0.11 0.06 0.05 0.06 0.06 0.06 0.06 0.05 0.04 0.05 0.06 0.06 0.06 0.06 0.09 0.09 0.11 0.11 0.10 0.09 0.08 0.06 0.05 0.06 0.07 0.07 0.06 0.06 0.03 0.02 0.00 0.00 0.00 0.00 0.01 0.01 0.01 0.01 0.01 0.01 0.02 0.02 0.02
0.11 0.09 0.07 0.06 0.07 0.06 0.05 0.04 0.04 0.05 0.04 0.04 0.05 0.06 0.08 0.08 0.07 0.09 0.10 0.08 0.08 0.07 0.07 0.09 0.09 0.07 0.05 0.06 0.04 0.01 0.00 0.01 0.00 0.00 0.00 0.01 0.01 0.01 0.01 0.01 0.01 0.02 0.02
0.11 0.09 0.07 0.06 0.06 0.06 0.05 0.06 0.04 0.04 0.04 0.04 0.04 0.05 0.05 0.04 0.05 0.07 0.07 0.08 0.09 0.09 0.09 0.10 0.07 0.06 0.05 0.04 0.02 0.01 0.01 0.01 0.01 0.00 0.00 0.00 0.01 0.01 0.01 0.01 0.01 0.01 0.02
0.08 0.06 0.05 0.04 0.04 0.05 0.05 0.05 0.05 0.05 0.04 0.03 0.03 0.04 0.04 0.04 0.04 0.04 0.03 0.05 0.07 0.09 0.09 0.07 0.06 0.05 0.04 0.03 0.02 0.01 0.02 0.02 0.01 0.01 0.00 0.00 0.00 0.00 0.00 0.00 0.00 0.00 0.00
0.08 0.06 0.05 0.04 0.05 0.04 0.03 0.04 0.04 0.04 0.05 0.04 0.04 0.04 0.05 0.04 0.05 0.04 0.02 0.03 0.04 0.06 0.07 0.06 0.06 0.04 0.03 0.02 0.02 0.02 0.03 0.01 0.01 0.00 0.00 0.00 0.00 0.00 0.00 0.00 0.00 0.00 0.00
0.09 0.08 0.07 0.06 0.05 0.05 0.05 0.05 0.05 0.05 0.05 0.05 0.05 0.05 0.04 0.05 0.07 0.06 0.04 0.03 0.03 0.03 0.04 0.05 0.04 0.04 0.03 0.03 0.02 0.02 0.03 0.02 0.01 0.00 0.00 0.00 0.00 0.00 0.00 0.00 0.00 0.00 0.00
0.09 0.09 0.08 0.08 0.07 0.06 0.06 0.05 0.04 0.05 0.06 0.07 0.06 0.06 0.04 0.05 0.05 0.05 0.05 0.04 0.03 0.03 0.03 0.04 0.04 0.04 0.04 0.02 0.02 0.01 0.01 0.01 0.01 0.00 0.00 0.00 0.00 0.00 0.00 0.00 0.00 0.00 0.00
0.09 0.08 0.07 0.07 0.07 0.07 0.06 0.05 0.04 0.04 0.05 0.05 0.05 0.05 0.04 0.03 0.03 0.03 0.03 0.03 0.03 0.03 0.03 0.03 0.04 0.04 0.03 0.02 0.03 0.02 0.01 0.02 0.01 0.00 0.01 0.00 0.00 0.00 0.00 0.00 0.00 0.00 0.00
0.08 0.07 0.06 0.07 0.06 0.06 0.06 0.05 0.05 0.04 0.04 0.03 0.04 0.04 0.03 0.03 0.03 0.04 0.04 0.04 0.04 0.05 0.05 0.05 0.04 0.04 0.03 0.02 0.03 0.03 0.02 0.02 0.01 0.01 0.01 0.01 0.00 0.00 0.00 0.00 0.00 0.00 0.00
0.07 0.08 0.08 0.10 0.08 0.07 0.06 0.06 0.05 0.04 0.04 0.04 0.04 0.04 0.04 0.04 0.04 0.05 0.05 0.05 0.06 0.05 0.05 0.04 0.04 0.04 0.04 0.04 0.04 0.03 0.03 0.03 0.03 0.02 0.02 0.01 0.01 0.01 0.01 0.00 0.00 0.00 0.00
0.10 0.10 0.09 0.08 0.08 0.06 0.05 0.05 0.05 0.04 0.04 0.05 0.06 0.06 0.05 0.03 0.03 0.05 0.05 0.04 0.04 0.04 0.04 0.04 0.04 0.05 0.05 0.05 0.04 0.03 0.03 0.03 0.03 0.03 0.03 0.02 0.02 0.02 0.01 0.01 0.01 0.00 0.00
0.10 0.10 0.09 0.09 0.10 0.08 0.05 0.04 0.03 0.04 0.05 0.06 0.08 0.08 0.05 0.04 0.05 0.03 0.04 0.03 0.02 0.01 0.02 0.03 0.04 0.05 0.05 0.05 0.04 0.03 0.04 0.04 0.05 0.04 0.04 0.03 0.02 0.02 0.01 0.01 0.01 0.00 0.00
0.07 0.08 0.07 0.08 0.09 0.07 0.05 0.03 0.02 0.03 0.05 0.05 0.06 0.06 0.06 0.07 0.06 0.05 0.04 0.04 0.04 0.03 0.02 0.02 0.03 0.03 0.03 0.03 0.03 0.03 0.03 0.04 0.04 0.05 0.05 0.03 0.02 0.01 0.01 0.00 0.00 0.00 0.00
0.09 0.09 0.08 0.08 0.08 0.06 0.04 0.02 0.02 0.04 0.06 0.05 0.05 0.05 0.06 0.08 0.08 0.06 0.05 0.06 0.06 0.06 0.02 0.02 0.02 0.02 0.02 0.01 0.01 0.01 0.02 0.04 0.04 0.03 0.03 0.02 0.02 0.02 0.01 0.00 0.00 0.00 0.00
0.11 0.11 0.11 0.11 0.10 0.07 0.05 0.03 0.03 0.04 0.06 0.07 0.07 0.06 0.07 0.07 0.06 0.04 0.04 0.05 0.06 0.06 0.04 0.03 0.02 0.02 0.02 0.02 0.02 0.02 0.02 0.03 0.03 0.03 0.03 0.03 0.02 0.02 0.01 0.00 0.00 0.00 0.00
MSLP
1014.03 1014.20 1014.33 1014.43 1014.55 1014.70 1014.88 1015.07 1015.26 1015.40 1015.47 1015.49 1015.46 1015.43 1015.44 1015.54 1015.75 1016.09 1016.51 1016.99 1017.47 1017.89 1018.25 1018.51 1018.68 1018.80 1018.90 1019.00 1019.13 1019.28 1019.47 1019.67 1019.86 1020.05 1020.22 1020.38 1020.53 1020.67 1020.80 1020.93 1021.03 1021.11 1021.16
1013.84 1014.03 1014.16 1014.28 1014.40 1014.55 1014.74 1014.95 1015.16 1015.34 1015.47 1015.55 1015.59 1015.62 1015.66 1015.76 1015.94 1016.20 1016.55 1016.93 1017.34 1017.72 1018.06 1018.34 1018.56 1018.74 1018.89 1019.03 1019.18 1019.34 1019.50 1019.66 1019.82 1019.98 1020.13 1020.29 1020.45 1020.62 1020.78 1020.93 1021.06 1021.16 1021.22
1013.62 1013.83 1013.99 1014.13 1014.29 1014.46 1014.67 1014.90 1015.14 1015.37 1015.55 1015.69 1015.79 1015.85 1015.92 1016.01 1016.14 1016.33 1016.59 1016.88 1017.20 1017.53 1017.85 1018.14 1018.40 1018.63 1018.84 1019.03 1019.21 1019.36 1019.50 1019.63 1019.74 1019.86 1019.98 1020.12 1020.29 1020.47 1020.66 1020.84 1021.00 1021.13 1021.22
1013.39 1013.63 1013.83 1014.03 1014.23 1014.44 1014.69 1014.95 1015.22 1015.47 1015.69 1015.87 1016.01 1016.10 1016.18 1016.25 1016.34 1016.46 1016.62 1016.83 1017.07 1017.34 1017.63 1017.92 1018.21 1018.49 1018.75 1018.99 1019.18 1019.34 1019.47 1019.56 1019.63 1019.70 1019.79 1019.91 1020.06 1020.24 1020.45 1020.66 1020.86 1021.02 1021.15
1013.19 1013.46 1013.72 1013.97 1014.23 1014.50 1014.79 1015.08 1015.37 1015.64 1015.88 1016.07 1016.22 1016.33 1016.40 1016.45 1016.50 1016.56 1016.65 1016.77 1016.94 1017.15 1017.41 1017.69 1018.00 1018.31 1018.61 1018.88 1019.10 1019.28 1019.40 1019.47 1019.51 1019.54 1019.59 1019.68 1019.81 1019.98 1020.19 1020.41 1020.63 1020.83 1020.99
1013.04 1013.34 1013.65 1013.97 1014.30 1014.63 1014.95 1015.27 1015.57 1015.84 1016.07 1016.26 1016.41 1016.51 1016.57 1016.60 1016.62 1016.63 1016.66 1016.72 1016.83 1016.98 1017.19 1017.45 1017.76 1018.08 1018.41 1018.71 1018.96 1019.16 1019.29 1019.36 1019.39 1019.41 1019.43 1019.48 1019.59 1019.74 1019.93 1020.15 1020.37 1020.58 1020.76
1012.94 1013.27 1013.64 1014.01 1014.40 1014.78 1015.14 1015.47 1015.77 1016.03 1016.25 1016.42 1016.55 1016.64 1016.69 1016.71 1016.71 1016.69 1016.68 1016.69 1016.74 1016.84 1017.00 1017.22 1017.50 1017.82 1018.15 1018.47 1018.75 1018.98 1019.14 1019.23 1019.28 1019.30 1019.32 1019.35 1019.43 1019.55 1019.71 1019.90 1020.11 1020.32 1020.51
1012.91 1013.26 1013.65 1014.07 1014.50 1014.92 1015.31 1015.66 1015.95 1016.20 1016.40 1016.55 1016.66 1016.74 1016.78 1016.79 1016.78 1016.76 1016.72 1016.70 1016.70 1016.74 1016.85 1017.01 1017.24 1017.52 1017.84 1018.16 1018.46 1018.72 1018.93 1019.08 1019.17 1019.22 1019.25 1019.29 1019.35 1019.44 1019.56 1019.72 1019.90 1020.08 1020.25
1012.93 1013.27 1013.68 1014.12 1014.57 1015.02 1015.43 1015.78 1016.08 1016.31 1016.49 1016.63 1016.73 1016.80 1016.85 1016.87 1016.87 1016.84 1016.80 1016.75 1016.71 1016.70 1016.74 1016.83 1016.99 1017.21 1017.49 1017.79 1018.11 1018.40 1018.66 1018.86 1019.02 1019.13 1019.20 1019.26 1019.32 1019.40 1019.49 1019.61 1019.74 1019.89 1020.04
1012.99 1013.31 1013.70 1014.14 1014.60 1015.05 1015.47 1015.83 1016.13 1016.36 1016.53 1016.67 1016.77 1016.84 1016.90 1016.94 1016.95 1016.94 1016.90 1016.84 1016.77 1016.70 1016.67 1016.68 1016.76 1016.90 1017.11 1017.38 1017.68 1018.00 1018.30 1018.58 1018.81 1018.99 1019.13 1019.23 1019.31 1019.39 1019.46 1019.54 1019.64 1019.75 1019.87
1013.07 1013.37 1013.73 1014.14 1014.58 1015.02 1015.44 1015.80 1016.10 1016.34 1016.52 1016.66 1016.77 1016.85 1016.93 1016.99 1017.02 1017.03 1017.00 1016.93 1016.83 1016.72 1016.62 1016.55 1016.54 1016.59 1016.73 1016.94 1017.21 1017.53 1017.87 1018.20 1018.50 1018.76 1018.98 1019.14 1019.26 1019.35 1019.42 1019.49 1019.56 1019.64 1019.74
1013.19 1013.44 1013.76 1014.13 1014.53 1014.95 1015.35 1015.71 1016.02 1016.26 1016.45 1016.60 1016.72 1016.82 1016.91 1016.98 1017.04 1017.06 1017.04 1016.98 1016.87 1016.73 1016.57 1016.43 1016.33 1016.29 1016.34 1016.49 1016.71 1017.01 1017.36 1017.73 1018.09 1018.43 1018.71 1018.94 1019.11 1019.23 1019.32 1019.39 1019.45 1019.52 1019.60
1013.32 1013.54 1013.81 1014.13 1014.49 1014.87 1015.25 1015.60 1015.90 1016.15 1016.34 1016.49 1016.61 1016.71 1016.80 1016.89 1016.95 1016.99 1016.99 1016.93 1016.82 1016.67 1016.48 1016.29 1016.12 1016.01 1015.98 1016.05 1016.22 1016.48 1016.82 1017.20 1017.60 1017.98 1018.32 1018.61 1018.84 1019.00 1019.12 1019.21 1019.28 1019.34 1019.41
1013.46 1013.66 1013.88 1014.15 1014.46 1014.80 1015.15 1015.47 1015.76 1016.00 1016.19 1016.33 1016.44 1016.52 1016.60 1016.68 1016.74 1016.78 1016.79 1016.75 1016.66 1016.52 1016.33 1016.12 1015.91 1015.75 1015.66 1015.66 1015.77 1015.98 1016.28 1016.65 1017.05 1017.45 1017.83 1018.16 1018.43 1018.64 1018.79 1018.91 1018.99 1019.07 1019.14
1013.59 1013.77 1013.96 1014.19 1014.45 1014.75 1015.06 1015.36 1015.62 1015.84 1016.00 1016.12 1016.20 1016.25 1016.30 1016.35 1016.40 1016.44 1016.46 1016.44 1016.38 1016.26 1016.10 1015.90 1015.69 1015.51 1015.38 1015.33 1015.38 1015.53 1015.78 1016.11 1016.49 1016.88 1017.27 1017.62 1017.91 1018.15 1018.34 1018.47 1018.58 1018.67 1018.75
1013.64 1013.82 1014.00 1014.20 1014.43 1014.69 1014.96 1015.23 1015.46 1015.65 1015.78 1015.86 1015.90 1015.91 1015.91 1015.93 1015.95 1015.98 1016.01 1016.02 1015.99 1015.92 1015.81 1015.65 1015.46 1015.29 1015.14 1015.06 1015.06 1015.16 1015.35 1015.62 1015.95 1016.32 1016.68 1017.02 1017.32 1017.56 1017.76 1017.92 1018.04 1018.15 1018.24
1013.55 1013.74 1013.92 1014.11 1014.32 1014.55 1014.80 1015.03 1015.24 1015.40 1015.50 1015.54 1015.54 1015.51 1015.47 1015.44 1015.44 1015.45 1015.49 1015.52 1015.54 1015.53 1015.47 1015.36 1015.23 1015.08 1014.95 1014.85 1014.82 1014.87 1015.00 1015.21 1015.47 1015.78 1016.09 1016.39 1016.66 1016.90 1017.09 1017.25 1017.38 1017.50 1017.61
1013.24 1013.45 1013.64 1013.83 1014.03 1014.26 1014.49 1014.72 1014.91 1015.05 1015.13 1015.15 1015.12 1015.06 1014.99 1014.93 1014.91 1014.92 1014.96 1015.02 1015.08 1015.11 1015.11 1015.07 1014.99 1014.88 1014.77 1014.68 1014.62 1014.63 1014.71 1014.85 1015.04 1015.27 1015.52 1015.76 1015.99 1016.18 1016.35 1016.50 1016.63 1016.75 1016.88
1012.69 1012.90 1013.10 1013.30 1013.52 1013.75 1013.99 1014.21 1014.41 1014.55 1014.63 1014.65 1014.62 1014.55 1014.48 1014.42 1014.39 1014.40 1014.46 1014.54 1014.63 1014.71 1014.76 1014.77 1014.73 1014.67 1014.58 1014.50 1014.43 1014.41 1014.44 1014.52 1014.64 1014.79 1014.96 1015.13 1015.29 1015.43 1015.56 1015.68 1015.80 1015.92 1016.06
1011.89 1012.10 1012.30 1012.51 1012.74 1012.99 1013.24 1013.49 1013.70 1013.87 1013.97 1014.02 1014.01 1013.97 1013.92 1013.88 1013.87 1013.90 1013.98 1014.08 1014.20 1014.31 1014.39 1014.44 1014.44 1014.41 1014.34 1014.27 1014.20 1014.16 1014.15 1014.17 1014.23 1014.30 1014.39 1014.48 1014.57 1014.64 1014.72 1014.81 1014.91 1015.03 1015.19
1010.93 1011.11 1011.30 1011.52 1011.76 1012.02 1012.29 1012.56 1012.80 1012.99 1013.14 1013.22 1013.26 1013.27 1013.27 1013.28 1013.31 1013.38 1013.48 1013.60 1013.74 1013.87 1013.98 1014.05 1014.08 1014.06 1014.02 1013.95 1013.89 1013.83 1013.80 1013.78 1013.78 1013.79 1013.81 1013.82 1013.83 1013.84 1013.86 1013.91 1013.99 1014.11 1014.28
1009.96 1010.10 1010.26 1010.46 1010.70 1010.96 1011.23 1011.51 1011.76 1011.97 1012.14 1012.27 1012.36 1012.43 1012.48 1012.55 1012.63 1012.75 1012.89 1013.04 1013.20 1013.34 1013.46 1013.54 1013.59 1013.59 1013.56 1013.51 1013.46 1013.40 1013.36 1013.31 1013.28 1013.24 1013.19 1013.14 1013.09 1013.04 1013.01 1013.01 1013.07 1013.18 1013.37
1009.18 1009.26 1009.39 1009.55 1009.76 1009.99 1010.23 1010.47 1010.70 1010.90 1011.07 1011.21 1011.32 1011.43 1011.53 1011.65 1011.79 1011.95 1012.12 1012.30 1012.48 1012.64 1012.77 1012.87 1012.92 1012.95 1012.94 1012.92 1012.89 1012.85 1012.81 1012.77 1012.72 1012.65 1012.57 1012.47 1012.36 1012.26 1012.18 1012.15 1012.18 1012.28 1012.48
1008.82 1008.84 1008.90 1009.01 1009.16 1009.32 1009.49 1009.65 1009.79 1009.92 1010.02 1010.12 1010.21 1010.31 1010.42 1010.56 1010.73 1010.92 1011.12 1011.33 1011.52 1011.70 1011.85 1011.96 1012.04 1012.10 1012.13 1012.15 1012.16 1012.16 1012.15 1012.13 1012.10 1012.03 1011.93 1011.81 1011.67 1011.53 1011.41 1011.35 1011.35 1011.44 1011.63
1009.02 1008.98 1008.99 1009.03 1009.08 1009.13 1009.17 1009.19 1009.19 1009.17 1009.15 1009.13 1009.13 1009.16 1009.23 1009.34 1009.49 1009.68 1009.89 1010.10 1010.31 1010.50 1010.67 1010.81 1010.93 1011.03 1011.11 1011.19 1011.26 1011.33 1011.38 1011.41 1011.41 1011.37 1011.29 1011.17 1011.02 1010.86 1010.72 1010.63 1010.61 1010.67 1010.84
1009.83 1009.76 1009.72 1009.67 1009.61 1009.52 1009.40 1009.23 1009.02 1008.80 1008.57 1008.37 1008.20 1008.10 1008.05 1008.08 1008.17 1008.31 1008.49 1008.69 1008.89 1009.09 1009.27 1009.44 1009.60 1009.75 1009.89 1010.04 1010.19 1010.34 1010.47 1010.58 1010.64 1010.66 1010.62 1010.52 1010.39 1010.24 1010.09 1009.98 1009.94 1009.99 1010.13
Thickness
5764 5762 5760 5760 5760 5759 5758 5758 5758 5757 5757 5757 5758 5757 5755 5753 5750 5747 5742 5740 5738 5736 5734 5732 5730 5728 5727 5725 5724 5722 5720 5719 5717 5716 5715 5713 5712 5711 5709 5708 5707 5706 5705
5763 5761 5760 5759 5759 5758 5758 5757 5757 5756 5755 5756 5756 5755 5754 5751 5749 5746 5742 5739 5737 5735 5734 5732 5730 5728 5727 5725 5723 5722 5720 5718 5717 5715 5714 5713 5711 5710 5709 5707 5706 5705 5704
5762 5760 5759 5758 5758 5758 5757 5756 5756 5755 5754 5754 5753 5753 5752 5750 5748 5746 5742 5740 5737 5735 5734 5732 5730 5728 5726 5725 5723 5721 5720 5718 5717 5715 5714 5712 5711 5710 5708 5707 5706 5704 5703
5760 5759 5758 5757 5757 5757 5756 5755 5754 5753 5752 5752 5751 5751 5750 5748 5747 5745 5743 5741 5739 5736 5734 5732 5730 5728 5726 5724 5722 5721 5719 5718 5716 5714 5713 5712 5711 5710 5708 5707 5705 5704 5703
5759 5757 5757 5756 5757 5756 5755 5755 5752 5751 5749 5749 5749 5748 5748 5747 5746 5745 5744 5742 5740 5737 5735 5732 5730 5728 5726 5724 5722 5721 5719 5717 5716 5714 5713 5712 5711 5709 5708 5707 5705 5703 5702
5758 5757 5756 5756 5755 5754 5753 5752 5750 5749 5748 5747 5748 5747 5747 5747 5746 5745 5743 5742 5740 5738 5736 5733 5729 5728 5725 5723 5722 5720 5719 5717 5716 5715 5713 5712 5710 5709 5708 5706 5705 5703 5702
5757 5755 5755 5754 5754 5752 5751 5750 5749 5747 5745 5747 5743 5740 5743 5746 5745 5744 5743 5741 5740 5738 5736 5733 5731 5728 5726 5723 5721 5720 5718 5717 5716 5715 5713 5712 5711 5709 5708 5707 5705 5704 5702
5756 5755 5754 5753 5752 5751 5750 5749 5747 5744 5744 5746 5740 5735 5731 5734 5739 5744 5742 5740 5739 5738 5736 5734 5732 5729 5727 5724 5721 5720 5718 5717 5715 5714 5713 5712 5711 5710 5708 5707 5705 5704 5703
5755 5754 5753 5752 5752 5750 5748 5747 5746 5743 5740 5743 5743 5737 5729 5724 5730 5737 5740 5741 5739 5737 5736 5735 5733 5730 5728 5725 5722 5720 5718 5717 5715 5714 5713 5712 5711 5710 5709 5707 5706 5704 5703
5753 5753 5752 5751 5750 5749 5747 5746 5746 5745 5741 5738 5740 5741 5739 5735 5728 5726 5733 5738 5738 5737 5736 5735 5733 5732 5729 5726 5724 5721 5718 5717 5715 5714 5712 5711 5710 5710 5708 5707 5706 5704 5703
5752 5752 5751 5750 5748 5748 5747 5746 5745 5744 5742 5740 5738 5738 5738 5737 5736 5728 5725 5730 5734 5737 5736 5735 5734 5732 5730 5728 5724 5722 5719 5717 5715 5713 5712 5711 5710 5709 5708 5707 5705 5704 5703
5750 5750 5750 5749 5748 5747 5746 5745 5744 5743 5741 5740 5739 5738 5736 5734 5732 5731 5727 5727 5728 5734 5737 5736 5734 5733 5731 5729 5727 5724 5720 5718 5716 5714 5712 5711 5709 5708 5708 5706 5705 5704 5703
5748 5749 5750 5749 5748 5746 5746 5745 5743 5742 5741 5739 5738 5738 5738 5738 5738 5736 5731 5728 5729 5732 5734 5735 5735 5734 5732 5730 5727 5724 5721 5718 5716 5714 5712 5711 5709 5708 5707 5706 5705 5704 5703
5751 5751 5750 5748 5747 5746 5746 5744 5742 5741 5740 5739 5738 5738 5737 5739 5740 5738 5735 5730 5725 5726 5729 5732 5735 5735 5733 5730 5727 5724 5721 5718 5716 5714 5713 5711 5709 5708 5707 5706 5705 5703 5702
5753 5752 5750 5748 5747 5746 5745 5743 5741 5740 5739 5738 5737 5737 5736 5738 5739 5739 5738 5735 5727 5720 5721 5729 5732 5734 5733 5730 5727 5723 5721 5719 5717 5715 5713 5711 5710 5709 5708 5706 5704 5703 5701
5753 5752 5750 5748 5746 5745 5744 5742 5740 5739 5738 5737 5736 5736 5736 5736 5737 5738 5738 5737 5734 5727 5722 5728 5730 5732 5731 5730 5726 5724 5722 5720 5718 5716 5714 5712 5711 5710 5708 5706 5704 5702 5700
5752 5750 5749 5747 5745 5743 5742 5740 5739 5739 5737 5736 5736 5735 5734 5735 5734 5734 5736 5735 5733 5730 5723 5726 5730 5730 5729 5727 5724 5723 5722 5720 5718 5716 5715 5713 5711 5709 5708 5706 5704 5701 5700
5751 5750 5749 5746 5744 5742 5741 5739 5738 5738 5736 5734 5734 5734 5733 5734 5732 5732 5732 5732 5731 5730 5725 5721 5723 5725 5725 5725 5723 5722 5721 5721 5720 5718 5716 5714 5711 5709 5707 5705 5703 5701 5699
5750 5749 5747 5745 5743 5742 5739 5739 5738 5737 5736 5735 5734 5733 5732 5731 5728 5729 5728 5728 5728 5729 5726 5722 5721 5723 5723 5723 5721 5720 5721 5720 5720 5719 5716 5714 5711 5710 5707 5705 5702 5700 5698
5749 5748 5746 5744 5742 5741 5739 5737 5736 5735 5735 5734 5733 5732 5731 5729 5727 5726 5725 5724 5724 5722 5722 5720 5718 5718 5719 5720 5718 5715 5714 5716 5716 5717 5715 5713 5711 5709 5706 5704 5701 5699 5696
5748 5746 5744 5742 5740 5739 5738 5735 5734 5733 5732 5731 5731 5730 5729 5728 5726 5724 5723 5721 5719 5717 5716 5715 5714 5714 5713 5712 5711 5712 5710 5711 5712 5714 5711 5711 5708 5706 5703 5701 5699 5697 5694
5747 5745 5742 5740 5738 5738 5737 5734 5732 5731 5729 5728 5727 5726 5726 5725 5723 5721 5719 5718 5715 5713 5711 5709 5709 5709 5710 5710 5710 5709 5706 5703 5701 5707 5705 5704 5705 5702 5702 5700 5698 5696 5692
5743 5741 5740 5738 5735 5734 5733 5731 5729 5728 5726 5725 5724 5723 5723 5725 5722 5720 5716 5714 5712 5711 5709 5707 5705 5704 5705 5706 5704 5702 5700 5698 5696 5700 5699 5696 5699 5698 5699 5698 5696 5692 5689
5740 5738 5737 5736 5733 5731 5729 5727 5725 5724 5724 5723 5722 5721 5719 5718 5719 5717 5714 5712 5710 5709 5708 5706 5705 5704 5703 5702 5701 5699 5697 5695 5696 5696 5694 5688 5691 5691 5694 5692 5690 5687 5683
5736 5735 5734 5732 5729 5727 5725 5723 5721 5720 5719 5719 5719 5718 5717 5715 5714 5712 5710 5708 5707 5706 5707 5705 5703 5701 5699 5697 5695 5692 5690 5686 5684 5687 5689 5684 5684 5684 5685 5685 5683 5680 5677
5733 5731 5729 5728 5726 5723 5720 5718 5716 5716 5715 5714 5714 5714 5713 5711 5710 5708 5706 5704 5701 5701 5701 5700 5698 5696 5694 5692 5690 5686 5683 5679 5677 5677 5681 5678 5676 5674 5672 5676 5675 5671 5668